Location: Mountain_View
(35.6670°N, 81.4000°W)
Time: 14:13:09
(UTC-05:00)

Daily predictions for brighter satellites

Satellite Brightness Start Highest point End
(mag) Time Altitude Azimuth Time Altitude Azimuth Time Altitude Azimuth
RESURS DK-1 4.5 18:30:29 10° WSW 18:34:05 28° WNW 18:37:42 10° N
ATLAS 2A CENTAUR R/B 2.9 18:33:00 10° SSW 18:34:26 15° SSE 18:36:45 10° ESE
ASTRO E2 3.5 18:34:48 10° WSW 18:38:40 45° S 18:42:32 10° ESE
YAOGAN 1 4.4 18:38:57 10° SSW 18:42:56 36° W 18:46:57 10° NNW
Cosmos 1378 Rocket 3.6 18:39:14 10° N 18:43:33 84° W 18:47:50 10° S
OAO 3 Copernicus 4.5 18:39:14 10° WSW 18:44:16 68° SSE 18:49:15 10° E
Cosmos 1908 Rocket 4.5 18:40:02 10° SSW 18:44:17 53° W 18:48:34 10° N
FREGAT/IRIS 3.6 18:45:18 10° SE 18:47:59 28° ENE 18:50:41 10° NNE
Cosmos 1782 Rocket 3.6 18:44:43 10° S 18:49:07 86° W 18:53:35 10° N
Helios 1B rocket 4.4 18:51:26 11° E 18:51:26 11° E 18:52:20 10° ESE
Cosmos 2322 Rocket 2.9 18:47:49 10° N 18:52:45 30° ENE 18:57:38 10° ESE
Cosmos 1633 4.4 18:51:10 10° ESE 18:52:55 13° E 18:53:50 12° ENE
Meteor 1-25 Rocket 4.2 18:51:26 10° S 18:56:54 61° E 19:02:27 10° NNE
Cosmos 1346 Rocket 2.8 18:54:08 10° N 18:58:06 82° W 19:01:59 10° S
Okean 2 Rocket 3.1 18:54:23 10° S 18:58:51 88° ESE 19:03:20 10° N
Meteor 1-28 Rocket 4.2 18:57:14 10° N 19:00:55 49° WNW 19:04:35 10° SSW
COSMO-SKYMED 1 4.1 18:59:01 10° N 19:03:04 40° WNW 19:07:06 10° SW
ALOS 2.8 18:59:01 10° SE 19:03:15 36° ENE 19:07:31 10° N
HJ-1C 4.3 19:01:03 10° SE 19:04:00 28° ENE 19:06:58 10° NNE
Cosmos 1745 Rocket 4.1 19:01:37 10° S 19:07:57 83° W 19:14:18 10° N
CENTAUR R/B 3.1 19:00:33 10° NNW 19:08:35 82° ENE 19:17:00 10° SSE
H-2A R/B 3.7 19:10:31 18° ESE 19:12:08 24° ENE 19:15:10 10° NNE
SL-8 R/B 3.8 19:08:24 10° NW 19:13:11 59° NNE 19:16:32 19° ESE
GOES 2 Rocket 4.4 19:09:12 10° WSW 19:13:21 30° S 19:16:33 13° SE
PSLV R/B 3.1 19:10:49 10° WNW 19:13:58 80° SSW 19:15:47 23° ESE
Cosmos 2151 Rocket 3.6 19:12:23 10° S 19:16:48 62° E 19:21:15 10° NNE
Cosmos 1818 3.7 19:14:24 10° S 19:19:39 51° ESE 19:24:33 12° NE
FENGYUN 3A 3.7 19:15:04 10° SSE 19:20:19 55° ENE 19:25:37 10° N
deb Kosmos-1763 4.1 19:19:43 10° SSW 19:23:31 87° WNW 19:27:20 10° NNE
Cosmos 1812 2.7 19:21:31 10° N 19:25:24 88° W 19:29:14 10° S
Cosmos 44 Rocket 3.3 19:27:25 10° NNW 19:32:09 79° WSW 19:36:48 10° SSE
Okean 1 Rocket 3.9 19:28:15 10° SSE 19:31:26 29° ESE 19:31:26 29° ESE
DELTA 2 R/B (1) 3.9 19:26:42 10° W 19:32:14 57° N 19:35:04 28° ENE
SL-19 R/B 4.2 19:33:51 10° SSE 19:39:23 73° ENE 19:45:11 10° N
Cosmos 2292 Rocket 3.9 19:36:51 10° S 19:41:08 85° W 19:46:59 10° N
Cosmos 1602 3.6 19:39:54 10° S 19:43:41 60° E 19:45:05 35° NNE
SJ-6B 4.2 19:42:45 10° S 19:46:37 41° W 19:50:25 10° NNW
Cosmos 2360 Rocket 2.9 19:41:58 10° N 19:46:58 33° ENE 19:46:58 33° ENE
Cosmos 1980 Rocket 4.2 19:42:47 10° NW 19:47:38 30° WSW 19:52:28 10° SSW
BREEZE-M DEB (TANK) 2.4 19:43:24 10° SW 19:47:59 64° SSE 19:47:59 64° SSE
TSX-5 3.6 19:44:58 10° SSW 19:47:37 53° S 19:47:37 53° S
Cosmos 1461 3.4 19:45:18 10° NNW 19:48:31 40° NNE 19:48:31 40° NNE
Cosmos 676 Rocket 3.9 19:44:57 10° SSW 19:50:07 88° WNW 19:55:21 10° NNE
Helios 1A 3.8 19:52:22 35° NNE 19:52:22 35° NNE 19:55:07 10° N
Cosmos 407 Rocket 4.1 19:46:38 10° SSW 19:51:45 57° WNW 19:56:58 10° N
Tiangong 2 2.9 19:49:18 10° NW 19:51:10 23° NNW 19:51:10 23° NNW
Gbstr 26 Del rocket 4.3 19:52:07 10° SSW 19:53:58 23° S 19:53:58 23° S
Cosmos 1023 Rocket 4.3 19:52:02 10° S 19:57:02 63° ESE 19:58:28 44° NE
Cosmos 1833 4.1 19:52:02 10° SSW 19:57:44 77° ESE 20:01:50 19° NNE
Resurs 01 Rocket 2.1 19:59:58 10° S 20:04:20 59° W 20:08:41 10° NNW
SL-24 R/B 4.4 20:03:17 51° SE 20:04:22 65° E 20:09:47 10° N
ERBS 4.2 20:01:36 10° WNW 20:04:37 28° WSW 20:05:29 24° SSW
Meteor 1-19 Rocket 4.1 19:59:31 10° N 20:05:11 72° E 20:08:13 29° SSE
Cosmos 44 3.6 20:00:55 10° NW 20:05:13 55° WSW 20:06:47 34° S
Cosmos 2181 Rocket 4.0 20:05:39 10° N 20:11:53 82° W 20:18:12 10° S
Meteor 1-13 Rocket 4.2 20:10:19 10° NNW 20:15:52 78° W 20:21:28 10° S
SL-16 R/B 3.0 20:11:14 10° NNW 20:16:42 51° WSW 20:22:09 10° S
ASTRO E2 4.2 20:15:17 10° WSW 20:18:04 30° SW 20:18:04 30° SW
DNEPR-1 R/B 4.0 20:17:03 10° NW 20:20:47 56° W 20:20:47 56° W
Cosmos 1140 Rocket 3.6 20:20:12 10° SSW 20:25:17 68° WNW 20:26:22 52° NNW
Helios 1B rocket 3.6 20:27:48 40° WSW 20:27:48 40° WSW 20:30:50 10° SSW
Cosmos 2184 Rocket 3.8 20:24:13 10° S 20:30:33 84° E 20:36:53 10° N
Cosmos 2074 Rocket 3.9 20:27:02 10° S 20:33:17 89° WNW 20:39:34 10° N
Cosmos 2322 Rocket 3.8 20:31:47 10° NW 20:36:42 32° WSW 20:41:35 10° SSW
Cosmos 2322 4.4 20:38:39 10° NNW 20:42:35 46° NNW 20:42:35 46° NNW
Cosmos 2360 Rocket 4.2 21:26:04 10° NW 21:28:48 23° WNW 21:28:48 23° WNW
